Time,TemperatureF,DewpointF,PressureIn,WindDirection,WindDirectionDegrees,WindSpeedMPH,WindSpeedGustMPH,Humidity,HourlyPrecipIn,Conditions,Clouds,dailyrainin,SolarRadiationWatts/m^2,SoftwareType,DateUTC
2013-01-19 00:03:00,36.8,8.2,31.83,ESE,113,0.0,0.0,30,0.00,SCT,,0.00,0.0,WeatherDisplay:10.37,2013-01-19 07:03:00,
2013-01-19 00:08:00,36.5,8.7,31.83,ESE,114,0.0,3.5,31,0.00,SCT,,0.00,0.0,WeatherDisplay:10.37,2013-01-19 07:08:00,
2013-01-19 00:13:00,36.2,7.7,31.83,ESE,114,0.0,0.0,30,0.00,SCT,,0.00,0.0,WeatherDisplay:10.37,2013-01-19 07:13:00,
2013-01-19 00:18:00,36.0,7.5,31.83,ESE,113,0.1,2.0,30,0.00,SCT,,0.00,0.0,WeatherDisplay:10.37,2013-01-19 07:18:00,
2013-01-19 00:23:00,35.8,7.3,31.83,WNW,296,0.0,0.0,30,0.00,SCT,,0.00,0.0,WeatherDisplay:10.37,2013-01-19 07:23:00,
2013-01-19 00:28:00,35.8,7.3,31.83,ENE,74,2.1,4.6,30,0.00,SCT,,0.00,0.0,WeatherDisplay:10.37,2013-01-19 07:28:00,
2013-01-19 00:33:00,35.8,8.1,31.83,East,88,0.3,5.8,31,0.00,SCT,,0.00,0.0,WeatherDisplay:10.37,2013-01-19 07:33:00,
2013-01-19 00:38:00,35.9,8.2,31.83,SSE,162,1.9,3.5,31,0.00,SCT,,0.00,0.0,WeatherDisplay:10.37,2013-01-19 07:38:00,
2013-01-19 00:43:00,36.0,7.5,31.83,WSW,254,0.0,0.0,30,0.00,SCT,,0.00,0.0,WeatherDisplay:10.37,2013-01-19 07:43:00,
2013-01-19 00:48:00,36.3,6.3,31.83,NW,311,5.4,6.9,28,0.00,SCT,,0.00,0.0,WeatherDisplay:10.37,2013-01-19 07:48:00,
2013-01-19 00:53:00,37.1,6.9,31.39,NW,315,0.9,1.2,28,0.00,SCT,,0.00,0.0,WeatherDisplay:10.37,2013-01-19 07:53:00,
2013-01-19 00:58:00,37.5,7.3,31.39,NW,315,2.1,3.5,28,0.00,SCT,,0.00,0.0,WeatherDisplay:10.37,2013-01-19 07:58:00,
2013-01-19 01:03:00,37.7,8.2,31.39,NW,315,0.0,0.0,29,0.00,SCT,,0.00,0.0,WeatherDisplay:10.37,2013-01-19 08:03:00,
2013-01-19 01:08:00,37.7,8.2,31.39,NW,315,0.0,0.0,29,0.00,SCT,,0.00,0.0,WeatherDisplay:10.37,2013-01-19 08:08:00,
2013-01-19 01:13:00,37.7,9.0,31.39,NW,315,0.7,3.5,30,0.00,SCT,,0.00,0.0,WeatherDisplay:10.37,2013-01-19 08:13:00,
2013-01-19 01:18:00,37.4,8.7,31.39,NW,315,0.0,1.2,30,0.00,BKN,,0.00,0.0,WeatherDisplay:10.37,2013-01-19 08:18:00,
2013-01-19 01:23:00,37.1,7.7,31.39,NW,315,0.7,2.3,29,0.00,BKN,,0.00,0.0,WeatherDisplay:10.37,2013-01-19 08:23:00,
2013-01-19 01:28:00,36.9,7.5,31.39,NW,315,1.3,4.6,29,0.00,BKN,,0.00,0.0,WeatherDisplay:10.37,2013-01-19 08:28:00,
2013-01-19 01:33:00,36.7,7.4,31.39,NW,315,0.0,0.0,29,0.00,BKN,,0.00,0.0,WeatherDisplay:10.37,2013-01-19 08:33:00,
2013-01-19 01:38:00,36.5,7.2,31.39,NW,315,1.6,3.5,29,0.00,BKN,,0.00,0.0,WeatherDisplay:10.37,2013-01-19 08:38:00,
2013-01-19 01:43:00,36.6,6.5,31.39,NW,315,0.7,3.0,28,0.00,BKN,,0.00,0.0,WeatherDisplay:10.37,2013-01-19 08:43:00,
2013-01-19 01:48:00,36.8,6.7,31.39,NW,315,0.7,2.3,28,0.00,BKN,,0.00,0.0,WeatherDisplay:10.37,2013-01-19 08:48:00,
2013-01-19 01:53:00,37.4,5.6,31.39,West,273,5.3,10.0,26,0.00,BKN,,0.00,0.0,WeatherDisplay:10.37,2013-01-19 08:53:00,
2013-01-19 01:58:00,38.9,7.7,31.39,SW,227,2.7,4.6,27,0.00,BKN,,0.00,0.0,WeatherDisplay:10.37,2013-01-19 08:58:00,
2013-01-19 02:03:00,39.9,6.9,31.39,West,279,2.8,8.0,25,0.00,BKN,,0.00,0.0,WeatherDisplay:10.37,2013-01-19 09:03:00,
2013-01-19 02:08:00,41.4,7.2,31.39,SSW,207,4.3,5.8,24,0.00,BKN,,0.00,0.0,WeatherDisplay:10.37,2013-01-19 09:08:00,
2013-01-19 02:13:00,42.7,7.4,31.39,West,273,6.1,10.4,23,0.00,BKN,,0.00,0.0,WeatherDisplay:10.37,2013-01-19 09:13:00,
2013-01-19 02:18:00,43.8,7.4,31.39,SW,232,0.8,3.5,22,0.00,BKN,,0.00,0.0,WeatherDisplay:10.37,2013-01-19 09:18:00,
2013-01-19 02:23:00,44.4,7.9,31.39,North,350,6.7,11.5,22,0.00,BKN,,0.00,0.0,WeatherDisplay:10.37,2013-01-19 09:23:00,
2013-01-19 02:28:00,44.7,8.1,31.39,SW,231,2.9,8.1,22,0.00,BKN,,0.00,0.0,WeatherDisplay:10.37,2013-01-19 09:28:00,
2013-01-19 02:33:00,44.7,8.1,31.39,SW,231,2.9,8.1,22,0.00,BKN,,0.00,0.0,WeatherDisplay:10.37,2013-01-19 09:33:00,
2013-01-19 02:38:00,44.7,8.1,31.39,SW,231,2.9,8.1,22,0.00,BKN,,0.00,0.0,WeatherDisplay:10.37,2013-01-19 09:38:00,
2013-01-19 02:43:00,44.7,8.1,31.39,SW,231,2.9,8.1,22,0.00,BKN,,0.00,0.0,WeatherDisplay:10.37,2013-01-19 09:43:00,
2013-01-19 02:48:00,44.7,8.1,31.39,SW,231,2.9,8.1,22,0.00,BKN,,0.00,0.0,WeatherDisplay:10.37,2013-01-19 09:48:00,
2013-01-19 02:53:00,44.7,8.1,31.39,SW,231,2.9,8.1,22,0.00,BKN,,0.00,0.0,WeatherDisplay:10.37,2013-01-19 09:53:00,
2013-01-19 02:58:00,44.7,8.1,31.39,SW,231,2.9,8.1,22,0.00,BKN,,0.00,0.0,WeatherDisplay:10.37,2013-01-19 09:58:00,
2013-01-19 03:03:00,44.7,8.1,31.39,SW,231,2.9,8.1,22,0.00,BKN,,0.00,0.0,WeatherDisplay:10.37,2013-01-19 10:03:00,
2013-01-19 03:08:00,44.7,8.1,31.39,SW,231,2.9,8.1,22,0.00,BKN,,0.00,0.0,WeatherDisplay:10.37,2013-01-19 10:08:00,
2013-01-19 03:13:00,44.7,8.1,31.39,SW,231,2.9,8.1,22,0.00,BKN,,0.00,0.0,WeatherDisplay:10.37,2013-01-19 10:13:00,
2013-01-19 03:18:00,44.7,8.1,31.39,SW,231,2.9,8.1,22,0.00,BKN,,0.00,0.0,WeatherDisplay:10.37,2013-01-19 10:18:00,
2013-01-19 03:23:00,44.7,8.1,31.39,SW,231,2.9,8.1,22,0.00,BKN,,0.00,0.0,WeatherDisplay:10.37,2013-01-19 10:23:00,
2013-01-19 03:28:00,44.7,8.1,31.39,SW,231,2.9,8.1,22,0.00,BKN,,0.00,0.0,WeatherDisplay:10.37,2013-01-19 10:28:00,
2013-01-19 03:33:00,44.7,8.1,31.39,SW,231,2.9,8.1,22,0.00,BKN,,0.00,0.0,WeatherDisplay:10.37,2013-01-19 10:33:00,
2013-01-19 03:38:00,44.7,8.1,31.39,SW,231,2.9,8.1,22,0.00,BKN,,0.00,0.0,WeatherDisplay:10.37,2013-01-19 10:38:00,
2013-01-19 03:43:00,44.7,8.1,31.39,SW,231,2.9,8.1,22,0.00,BKN,,0.00,0.0,WeatherDisplay:10.37,2013-01-19 10:43:00,
2013-01-19 03:48:00,44.7,8.1,31.39,SW,231,2.9,8.1,22,0.00,BKN,,0.00,0.0,WeatherDisplay:10.37,2013-01-19 10:48:00,
2013-01-19 03:53:00,44.7,8.1,31.39,SW,231,2.9,8.1,22,0.00,BKN,,0.00,0.0,WeatherDisplay:10.37,2013-01-19 10:53:00,
2013-01-19 03:58:00,44.7,8.1,31.39,SW,231,2.9,8.1,22,0.00,BKN,,0.00,0.0,WeatherDisplay:10.37,2013-01-19 10:58:00,
2013-01-19 04:03:00,44.7,8.1,31.39,SW,231,2.9,8.1,22,0.00,BKN,,0.00,0.0,WeatherDisplay:10.37,2013-01-19 11:03:00,
2013-01-19 04:08:00,44.7,8.1,31.39,SW,231,2.9,8.1,22,0.00,BKN,,0.00,0.0,WeatherDisplay:10.37,2013-01-19 11:08:00,
2013-01-19 04:13:00,44.7,8.1,31.39,SW,231,2.9,8.1,22,0.00,BKN,,0.00,0.0,WeatherDisplay:10.37,2013-01-19 11:13:00,
2013-01-19 05:48:00,44.7,8.1,31.39,SW,231,2.9,8.1,22,0.00,CLR,,0.00,0.0,WeatherDisplay:10.37,2013-01-19 12:48:00,
2013-01-19 05:53:00,44.7,8.1,31.39,SW,231,2.9,8.1,22,0.00,CLR,,0.00,0.0,WeatherDisplay:10.37,2013-01-19 12:53:00,
2013-01-19 05:58:00,44.7,8.1,31.39,SW,231,2.9,8.1,22,0.00,CLR,,0.00,0.0,WeatherDisplay:10.37,2013-01-19 12:58:00,
2013-01-19 06:03:00,44.7,8.1,31.39,SW,231,2.9,8.1,22,0.00,CLR,,0.00,0.0,WeatherDisplay:10.37,2013-01-19 13:03:00,
2013-01-19 06:08:00,44.7,8.1,31.39,SW,231,2.9,8.1,22,0.00,CLR,,0.00,0.0,WeatherDisplay:10.37,2013-01-19 13:08:00,
2013-01-19 06:13:00,44.7,8.1,31.39,SW,231,2.9,8.1,22,0.00,CLR,,0.00,0.0,WeatherDisplay:10.37,2013-01-19 13:13:00,
2013-01-19 06:18:00,44.7,8.1,31.39,SW,231,2.9,8.1,22,0.00,CLR,,0.00,0.0,WeatherDisplay:10.37,2013-01-19 13:18:00,
2013-01-19 06:23:00,44.7,8.1,31.39,SW,231,2.9,8.1,22,0.00,CLR,,0.00,0.0,WeatherDisplay:10.37,2013-01-19 13:23:00,
2013-01-19 06:28:00,44.7,8.1,31.39,SW,231,2.9,8.1,22,0.00,CLR,,0.00,0.0,WeatherDisplay:10.37,2013-01-19 13:28:00,
2013-01-19 06:33:00,44.7,8.1,31.39,SW,231,2.9,8.1,22,0.00,CLR,,0.00,0.0,WeatherDisplay:10.37,2013-01-19 13:33:00,
2013-01-19 06:38:00,44.7,8.1,31.39,SW,231,2.9,8.1,22,0.00,CLR,,0.00,0.0,WeatherDisplay:10.37,2013-01-19 13:38:00,
2013-01-19 06:43:00,44.7,8.1,31.39,SW,231,2.9,8.1,22,0.00,CLR,,0.00,0.0,WeatherDisplay:10.37,2013-01-19 13:43:00,
2013-01-19 06:48:00,44.7,8.1,31.39,SW,231,2.9,8.1,22,0.00,CLR,,0.00,0.0,WeatherDisplay:10.37,2013-01-19 13:48:00,
2013-01-19 06:53:00,44.7,8.1,31.39,SW,231,2.9,8.1,22,0.00,CLR,,0.00,0.0,WeatherDisplay:10.37,2013-01-19 13:53:00,
2013-01-19 06:58:00,44.7,8.1,31.39,SW,231,2.9,8.1,22,0.00,CLR,,0.00,0.0,WeatherDisplay:10.37,2013-01-19 13:58:00,
2013-01-19 07:03:00,44.7,8.1,31.39,SW,231,2.9,8.1,22,0.00,CLR,,0.00,0.0,WeatherDisplay:10.37,2013-01-19 14:03:00,
2013-01-19 07:08:00,44.7,8.1,31.39,SW,231,2.9,8.1,22,0.00,CLR,,0.00,0.0,WeatherDisplay:10.37,2013-01-19 14:08:00,
2013-01-19 07:13:00,36.3,7.0,31.60,SSE,165,5.6,8.1,29,0.00,CLR,,0.00,0.0,WeatherDisplay:10.37,2013-01-19 14:13:00,
2013-01-19 07:18:00,35.7,6.5,31.60,SSE,168,3.0,3.5,29,0.00,CLR,,0.00,0.0,WeatherDisplay:10.37,2013-01-19 14:18:00,
2013-01-19 07:23:00,35.3,6.9,31.60,SSE,164,3.6,4.6,30,0.00,CLR,,0.00,7.0,WeatherDisplay:10.37,2013-01-19 14:23:00,
2013-01-19 07:28:00,34.8,6.5,31.60,SSE,167,3.1,4.6,30,0.00,CLR,,0.00,9.0,WeatherDisplay:10.37,2013-01-19 14:28:00,
2013-01-19 07:34:00,34.4,6.8,31.60,South,169,1.6,3.5,31,0.00,CLR,,0.00,11.0,WeatherDisplay:10.37,2013-01-19 14:34:00,
2013-01-19 07:39:00,34.4,6.8,31.60,South,170,2.3,3.5,31,0.00,CLR,,0.00,14.0,WeatherDisplay:10.37,2013-01-19 14:39:00,
2013-01-19 07:44:00,34.0,7.2,31.60,South,169,2.6,3.5,32,0.00,CLR,,0.00,33.0,WeatherDisplay:10.37,2013-01-19 14:44:00,
2013-01-19 07:49:00,33.8,7.7,31.60,SSE,167,2.5,3.5,33,0.00,CLR,,0.00,53.0,WeatherDisplay:10.37,2013-01-19 14:49:00,
2013-01-19 07:54:00,33.5,7.4,31.60,SSE,167,1.4,3.5,33,0.00,CLR,,0.00,69.0,WeatherDisplay:10.37,2013-01-19 14:54:00,
2013-01-19 07:59:00,33.2,7.2,31.60,SSE,167,1.7,3.5,33,0.00,CLR,,0.00,76.0,WeatherDisplay:10.37,2013-01-19 14:59:00,
2013-01-19 08:04:00,33.1,7.1,31.60,SSE,167,2.7,4.0,33,0.00,CLR,,0.00,93.0,WeatherDisplay:10.37,2013-01-19 15:04:00,
2013-01-19 08:09:00,32.9,6.9,31.60,SSE,167,2.3,3.0,33,0.00,CLR,,0.00,86.0,WeatherDisplay:10.37,2013-01-19 15:09:00,
2013-01-19 08:14:00,33.0,7.0,31.60,SSE,167,2.0,3.5,33,0.00,CLR,,0.00,109.0,WeatherDisplay:10.37,2013-01-19 15:14:00,
2013-01-19 08:19:00,33.3,7.2,31.60,South,169,2.5,3.5,33,0.00,CLR,,0.00,118.0,WeatherDisplay:10.37,2013-01-19 15:19:00,
2013-01-19 08:24:00,33.8,8.4,31.60,SSE,168,2.8,3.5,34,0.00,CLR,,0.00,32.0,WeatherDisplay:10.37,2013-01-19 15:24:00,
2013-01-19 08:29:00,34.4,8.9,31.60,SSE,168,0.0,1.2,34,0.00,CLR,,0.00,125.0,WeatherDisplay:10.37,2013-01-19 15:29:00,
2013-01-19 08:34:00,34.4,8.2,31.60,South,169,0.2,1.2,33,0.00,CLR,,0.00,49.0,WeatherDisplay:10.37,2013-01-19 15:34:00,
2013-01-19 08:39:00,34.4,8.2,31.60,South,169,0.2,1.2,33,0.00,CLR,,0.00,49.0,WeatherDisplay:10.37,2013-01-19 15:39:00,
2013-01-19 08:44:00,34.4,8.2,31.60,South,169,0.2,1.2,33,0.00,CLR,,0.00,49.0,WeatherDisplay:10.37,2013-01-19 15:44:00,
2013-01-19 08:49:00,34.4,8.2,31.60,South,169,0.2,1.2,33,0.00,CLR,,0.00,49.0,WeatherDisplay:10.37,2013-01-19 15:49:00,
2013-01-19 08:54:00,34.4,8.2,31.60,South,169,0.2,1.2,33,0.00,CLR,,0.00,49.0,WeatherDisplay:10.37,2013-01-19 15:54:00,
2013-01-19 08:59:00,34.4,8.2,31.60,South,169,0.2,1.2,33,0.00,CLR,,0.00,49.0,WeatherDisplay:10.37,2013-01-19 15:59:00,
2013-01-19 09:04:00,36.9,9.7,31.49,SE,128,3.3,4.6,32,0.00,CLR,,0.00,213.0,WeatherDisplay:10.37,2013-01-19 16:04:00,
2013-01-19 09:09:00,37.2,10.0,31.49,SE,144,3.8,4.6,32,0.00,CLR,,0.00,285.0,WeatherDisplay:10.37,2013-01-19 16:09:00,
2013-01-19 09:14:00,37.2,10.0,31.49,SE,144,3.8,4.6,32,0.00,CLR,,0.00,285.0,WeatherDisplay:10.37,2013-01-19 16:14:00,
2013-01-19 09:19:00,37.2,10.0,31.49,SE,144,3.8,4.6,32,0.00,CLR,,0.00,285.0,WeatherDisplay:10.37,2013-01-19 16:19:00,
2013-01-19 09:24:00,37.2,10.0,31.49,SE,144,3.8,4.6,32,0.00,CLR,,0.00,285.0,WeatherDisplay:10.37,2013-01-19 16:24:00,
2013-01-19 09:29:00,37.2,10.0,31.49,SE,144,3.8,4.6,32,0.00,CLR,,0.00,285.0,WeatherDisplay:10.37,2013-01-19 16:29:00,
2013-01-19 09:34:00,37.2,10.0,31.49,SE,144,3.8,4.6,32,0.00,CLR,,0.00,285.0,WeatherDisplay:10.37,2013-01-19 16:34:00,
2013-01-19 09:39:00,37.2,10.0,31.49,SE,144,3.8,4.6,32,0.00,CLR,,0.00,285.0,WeatherDisplay:10.37,2013-01-19 16:39:00,
2013-01-19 09:44:00,37.2,10.0,31.49,SE,144,3.8,4.6,32,0.00,CLR,,0.00,285.0,WeatherDisplay:10.37,2013-01-19 16:44:00,
2013-01-19 09:49:00,37.2,10.0,31.49,SE,144,3.8,4.6,32,0.00,CLR,,0.00,285.0,WeatherDisplay:10.37,2013-01-19 16:49:00,
2013-01-19 09:54:00,37.2,10.0,31.49,SE,144,3.8,4.6,32,0.00,CLR,,0.00,285.0,WeatherDisplay:10.37,2013-01-19 16:54:00,
2013-01-19 09:59:00,37.2,10.0,31.49,SE,144,3.8,4.6,32,0.00,CLR,,0.00,285.0,WeatherDisplay:10.37,2013-01-19 16:59:00,
2013-01-19 10:04:00,37.2,10.0,31.49,SE,144,3.8,4.6,32,0.00,CLR,,0.00,285.0,WeatherDisplay:10.37,2013-01-19 17:04:00,
2013-01-19 10:09:00,37.2,10.0,31.49,SE,144,3.8,4.6,32,0.00,CLR,,0.00,285.0,WeatherDisplay:10.37,2013-01-19 17:09:00,
2013-01-19 10:14:00,37.2,10.0,31.49,SE,144,3.8,4.6,32,0.00,CLR,,0.00,285.0,WeatherDisplay:10.37,2013-01-19 17:14:00,
2013-01-19 10:19:00,37.2,10.0,31.49,SE,144,3.8,4.6,32,0.00,CLR,,0.00,285.0,WeatherDisplay:10.37,2013-01-19 17:19:00,
2013-01-19 10:25:00,37.2,10.0,31.49,SE,144,3.0,5.0,32,0.00,CLR,,0.00,285.0,WeatherDisplay:10.37,2013-01-19 17:25:00,
2013-01-19 10:30:00,37.2,10.0,31.49,SE,144,3.8,4.6,32,0.00,CLR,,0.00,285.0,WeatherDisplay:10.37,2013-01-19 17:30:00,
2013-01-19 10:35:00,37.2,10.0,31.49,SE,144,3.8,4.6,32,0.00,CLR,,0.00,285.0,WeatherDisplay:10.37,2013-01-19 17:35:00,
2013-01-19 10:40:00,37.2,10.0,31.49,SE,144,3.0,5.0,32,0.00,CLR,,0.00,285.0,WeatherDisplay:10.37,2013-01-19 17:40:00,
2013-01-19 10:45:00,37.2,10.0,31.49,SE,144,3.0,5.0,32,0.00,CLR,,0.00,285.0,WeatherDisplay:10.37,2013-01-19 17:45:00,
2013-01-19 10:50:00,37.2,10.0,31.49,SE,144,3.0,5.0,32,0.00,CLR,,0.00,285.0,WeatherDisplay:10.37,2013-01-19 17:50:00,
2013-01-19 10:55:00,37.2,10.0,31.49,SE,144,3.0,5.0,32,0.00,CLR,,0.00,285.0,WeatherDisplay:10.37,2013-01-19 17:55:00,
2013-01-19 11:00:00,37.2,10.0,31.49,SE,144,3.8,4.6,32,0.00,CLR,,0.00,285.0,WeatherDisplay:10.37,2013-01-19 18:00:00,
2013-01-19 11:05:00,37.2,10.0,31.49,SE,144,3.8,4.6,32,0.00,CLR,,0.00,285.0,WeatherDisplay:10.37,2013-01-19 18:05:00,
2013-01-19 11:11:00,37.2,10.0,31.49,SE,144,3.8,4.6,32,0.00,CLR,,0.00,285.0,WeatherDisplay:10.37,2013-01-19 18:11:00,
2013-01-19 11:16:00,37.2,10.0,31.49,SE,144,3.8,4.6,32,0.00,CLR,,0.00,285.0,WeatherDisplay:10.37,2013-01-19 18:16:00,
2013-01-19 11:21:00,37.2,10.0,31.49,SE,144,3.8,4.6,32,0.00,CLR,,0.00,285.0,WeatherDisplay:10.37,2013-01-19 18:21:00,
2013-01-19 11:27:00,37.2,10.0,31.49,SE,144,3.8,4.6,32,0.00,CLR,,0.00,285.0,WeatherDisplay:10.37,2013-01-19 18:27:00,
2013-01-19 11:32:00,37.2,10.0,31.49,SE,144,3.8,4.6,32,0.00,CLR,,0.00,285.0,WeatherDisplay:10.37,2013-01-19 18:32:00,
2013-01-19 11:37:00,37.2,10.0,31.49,SE,144,3.8,4.6,32,0.00,CLR,,0.00,285.0,WeatherDisplay:10.37,2013-01-19 18:37:00,
2013-01-19 11:42:00,37.2,10.0,31.49,SE,144,3.8,4.6,32,0.00,CLR,,0.00,285.0,WeatherDisplay:10.37,2013-01-19 18:42:00,
2013-01-19 11:47:00,37.2,10.0,31.49,SE,144,3.8,4.6,32,0.00,CLR,,0.00,285.0,WeatherDisplay:10.37,2013-01-19 18:47:00,
2013-01-19 11:52:00,37.2,10.0,31.49,SE,144,3.8,4.6,32,0.00,CLR,,0.00,285.0,WeatherDisplay:10.37,2013-01-19 18:52:00,
2013-01-19 11:59:00,37.2,10.0,31.49,SE,144,3.8,4.6,32,0.00,CLR,,0.00,285.0,WeatherDisplay:10.37,2013-01-19 18:59:00,
2013-01-19 12:04:00,37.2,10.0,31.49,SE,144,3.8,4.6,32,0.00,CLR,,0.00,285.0,WeatherDisplay:10.37,2013-01-19 19:04:00,
2013-01-19 12:09:00,37.2,10.0,31.49,SE,144,3.8,4.6,32,0.00,CLR,,0.00,285.0,WeatherDisplay:10.37,2013-01-19 19:09:00,
2013-01-19 12:15:00,37.2,10.0,31.49,SE,144,3.0,5.0,32,0.00,CLR,,0.00,285.0,WeatherDisplay:10.37,2013-01-19 19:15:00,
2013-01-19 12:20:00,37.2,10.0,31.49,SE,144,3.0,5.0,32,0.00,CLR,,0.00,285.0,WeatherDisplay:10.37,2013-01-19 19:20:00,
2013-01-19 12:25:00,37.2,10.0,31.49,SE,144,3.0,5.0,32,0.00,CLR,,0.00,285.0,WeatherDisplay:10.37,2013-01-19 19:25:00,
2013-01-19 12:30:00,37.2,10.0,31.49,SE,144,3.0,5.0,32,0.00,CLR,,0.00,285.0,WeatherDisplay:10.37,2013-01-19 19:30:00,
2013-01-19 12:37:00,37.2,10.0,31.49,SE,144,3.8,4.6,32,0.00,CLR,,0.00,285.0,WeatherDisplay:10.37,2013-01-19 19:37:00,
2013-01-19 12:42:00,37.2,10.0,31.49,SE,144,3.8,4.6,32,0.00,CLR,,0.00,285.0,WeatherDisplay:10.37,2013-01-19 19:42:00,
2013-01-19 12:47:00,37.2,10.0,31.49,SE,144,3.8,4.6,32,0.00,CLR,,0.00,285.0,WeatherDisplay:10.37,2013-01-19 19:47:00,
2013-01-19 12:52:00,37.2,10.0,31.49,SE,144,3.8,4.6,32,0.00,CLR,,0.00,285.0,WeatherDisplay:10.37,2013-01-19 19:52:00,
2013-01-19 12:57:00,37.2,10.0,31.49,SE,144,3.8,4.6,32,0.00,CLR,,0.00,285.0,WeatherDisplay:10.37,2013-01-19 19:57:00,
2013-01-19 13:03:00,37.2,10.0,31.49,SE,144,3.8,4.6,32,0.00,FEW,,0.00,285.0,WeatherDisplay:10.37,2013-01-19 20:03:00,
2013-01-19 13:08:00,37.2,10.0,31.49,SE,144,3.8,4.6,32,0.00,FEW,,0.00,285.0,WeatherDisplay:10.37,2013-01-19 20:08:00,
2013-01-19 13:13:00,37.2,10.0,31.49,SE,144,3.8,4.6,32,0.00,FEW,,0.00,285.0,WeatherDisplay:10.37,2013-01-19 20:13:00,
2013-01-19 13:18:00,37.2,10.0,31.49,SE,144,3.8,4.6,32,0.00,FEW,,0.00,285.0,WeatherDisplay:10.37,2013-01-19 20:18:00,
2013-01-19 13:23:00,37.2,10.0,31.49,SE,144,3.8,4.6,32,0.00,FEW,,0.00,285.0,WeatherDisplay:10.37,2013-01-19 20:23:00,
2013-01-19 13:29:00,37.2,10.0,31.49,SE,144,3.8,4.6,32,0.00,FEW,,0.00,285.0,WeatherDisplay:10.37,2013-01-19 20:29:00,
2013-01-19 13:34:00,37.2,10.0,31.49,SE,144,3.8,4.6,32,0.00,FEW,,0.00,285.0,WeatherDisplay:10.37,2013-01-19 20:34:00,
2013-01-19 13:40:00,37.2,10.0,31.49,SE,144,3.8,4.6,32,0.00,FEW,,0.00,285.0,WeatherDisplay:10.37,2013-01-19 20:40:00,
2013-01-19 13:45:00,37.2,10.0,31.49,SE,144,3.8,4.6,32,0.00,FEW,,0.00,285.0,WeatherDisplay:10.37,2013-01-19 20:45:00,
2013-01-19 13:50:00,37.2,10.0,31.49,SE,144,3.8,4.6,32,0.00,FEW,,0.00,285.0,WeatherDisplay:10.37,2013-01-19 20:50:00,
2013-01-19 13:55:00,59.1,9.9,31.66,SSE,151,2.2,4.6,14,0.00,FEW,,0.00,425.0,WeatherDisplay:10.37,2013-01-19 20:55:00,
2013-01-19 14:00:00,59.0,9.8,31.66,SSE,151,2.0,5.0,14,0.00,FEW,,0.00,418.0,WeatherDisplay:10.37,2013-01-19 21:00:00,
2013-01-19 14:05:00,59.3,8.4,31.66,SSE,151,0.0,3.0,13,0.00,FEW,,0.00,422.0,WeatherDisplay:10.37,2013-01-19 21:05:00,
2013-01-19 14:10:00,59.4,8.4,30.85,SE,136,1.0,4.0,13,0.00,FEW,,0.00,410.0,WeatherDisplay:10.37,2013-01-19 21:10:00,
2013-01-19 14:15:00,59.5,8.6,30.74,SE,130,0.0,3.0,13,0.00,FEW,,0.00,403.0,WeatherDisplay:10.37,2013-01-19 21:15:00,
2013-01-19 14:20:00,59.8,8.8,30.74,SE,129,1.3,3.5,13,0.00,FEW,,0.00,392.0,WeatherDisplay:10.37,2013-01-19 21:20:00,
2013-01-19 14:25:00,59.8,8.8,30.74,SE,129,1.0,0.0,13,0.00,FEW,,0.00,392.0,WeatherDisplay:10.37,2013-01-19 21:25:00,
2013-01-19 14:30:00,59.8,8.8,30.74,SE,131,0.0,1.0,13,0.00,FEW,,0.00,352.0,WeatherDisplay:10.37,2013-01-19 21:30:00,
2013-01-19 14:35:00,59.8,8.8,31.65,SE,142,0.6,2.0,13,0.00,FEW,,0.00,336.0,WeatherDisplay:10.37,2013-01-19 21:35:00,
2013-01-19 14:41:00,59.6,8.6,31.65,North,350,2.0,3.5,13,0.00,FEW,,0.00,295.0,WeatherDisplay:10.37,2013-01-19 21:41:00,
2013-01-19 14:47:00,59.7,8.7,31.65,NNW,343,1.6,3.5,13,0.00,FEW,,0.00,295.0,WeatherDisplay:10.37,2013-01-19 21:47:00,
2013-01-19 14:52:00,59.7,8.7,31.65,NNW,343,1.6,3.5,13,0.00,FEW,,0.00,295.0,WeatherDisplay:10.37,2013-01-19 21:52:00,
2013-01-19 14:57:00,59.7,8.7,31.65,NNW,343,1.6,3.5,13,0.00,FEW,,0.00,295.0,WeatherDisplay:10.37,2013-01-19 21:57:00,
2013-01-19 15:02:00,59.7,8.7,31.65,NNW,343,1.6,3.5,13,0.00,FEW,,0.00,295.0,WeatherDisplay:10.37,2013-01-19 22:02:00,
2013-01-19 15:07:00,59.7,8.7,31.65,NNW,343,1.6,3.5,13,0.00,FEW,,0.00,295.0,WeatherDisplay:10.37,2013-01-19 22:07:00,
2013-01-19 15:13:00,59.5,6.8,31.66,NNW,346,3.0,3.5,12,0.00,FEW,,0.00,200.0,WeatherDisplay:10.37,2013-01-19 22:13:00,
2013-01-19 15:18:00,59.4,6.7,30.74,NW,316,3.1,4.6,12,0.00,FEW,,0.00,172.0,WeatherDisplay:10.37,2013-01-19 22:18:00,
2013-01-19 15:23:00,59.1,6.4,30.74,North,351,0.1,1.2,12,0.00,FEW,,0.00,207.0,WeatherDisplay:10.37,2013-01-19 22:23:00,
2013-01-19 15:28:00,59.0,6.4,30.74,North,351,0.0,1.2,12,0.00,FEW,,0.00,113.0,WeatherDisplay:10.37,2013-01-19 22:28:00,
2013-01-19 15:33:00,59.0,6.4,30.74,North,351,0.0,0.0,12,0.00,FEW,,0.00,113.0,WeatherDisplay:10.37,2013-01-19 22:33:00,
2013-01-19 15:38:00,59.0,6.4,30.74,North,351,0.0,0.0,12,0.00,FEW,,0.00,113.0,WeatherDisplay:10.37,2013-01-19 22:38:00,
2013-01-19 15:43:00,59.0,6.4,30.74,North,351,0.0,0.0,12,0.00,FEW,,0.00,113.0,WeatherDisplay:10.37,2013-01-19 22:43:00,
2013-01-19 15:49:00,59.0,6.4,30.74,North,351,0.0,0.0,12,0.00,FEW,,0.00,113.0,WeatherDisplay:10.37,2013-01-19 22:49:00,
2013-01-19 15:54:00,59.0,6.4,30.74,North,351,0.0,0.0,12,0.00,FEW,,0.00,113.0,WeatherDisplay:10.37,2013-01-19 22:54:00,
2013-01-19 15:59:00,59.0,6.4,30.74,North,351,0.0,0.0,12,0.00,FEW,,0.00,113.0,WeatherDisplay:10.37,2013-01-19 22:59:00,
2013-01-19 16:04:00,59.0,6.4,30.74,North,351,0.0,0.0,12,0.00,FEW,,0.00,113.0,WeatherDisplay:10.37,2013-01-19 23:04:00,
2013-01-19 16:10:00,59.0,6.4,30.74,North,351,0.0,0.0,12,0.00,FEW,,0.00,113.0,WeatherDisplay:10.37,2013-01-19 23:10:00,
2013-01-19 16:15:00,59.0,6.4,30.74,North,351,0.0,0.0,12,0.00,FEW,,0.00,113.0,WeatherDisplay:10.37,2013-01-19 23:15:00,
2013-01-19 16:20:00,59.0,6.4,30.74,North,351,0.0,0.0,12,0.00,SCT,,0.00,113.0,WeatherDisplay:10.37,2013-01-19 23:20:00,
2013-01-19 16:25:00,59.0,6.4,30.74,North,351,0.0,0.0,12,0.00,SCT,,0.00,113.0,WeatherDisplay:10.37,2013-01-19 23:25:00,
2013-01-19 16:30:00,59.0,6.4,30.74,North,351,0.0,0.0,12,0.00,SCT,,0.00,113.0,WeatherDisplay:10.37,2013-01-19 23:30:00,
2013-01-19 16:35:00,59.0,6.4,30.74,North,351,0.0,0.0,12,0.00,SCT,,0.00,113.0,WeatherDisplay:10.37,2013-01-19 23:35:00,
2013-01-19 16:40:00,59.0,6.4,30.74,North,351,0.0,0.0,12,0.00,SCT,,0.00,113.0,WeatherDisplay:10.37,2013-01-19 23:40:00,
2013-01-19 16:45:00,59.0,6.4,30.74,North,351,0.0,0.0,12,0.00,SCT,,0.00,113.0,WeatherDisplay:10.37,2013-01-19 23:45:00,
2013-01-19 16:51:00,59.0,6.4,30.74,North,351,0.0,0.0,12,0.00,SCT,,0.00,113.0,WeatherDisplay:10.37,2013-01-19 23:51:00,
2013-01-19 16:56:00,59.0,6.4,30.74,North,351,0.0,0.0,12,0.00,SCT,,0.00,113.0,WeatherDisplay:10.37,2013-01-19 23:56:00,
2013-01-19 17:01:00,59.0,6.4,30.74,North,351,0.0,0.0,12,0.00,SCT,,0.00,113.0,WeatherDisplay:10.37,2013-01-20 00:01:00,
2013-01-19 17:06:00,59.0,6.4,30.74,North,351,0.0,0.0,12,0.00,SCT,,0.00,113.0,WeatherDisplay:10.37,2013-01-20 00:06:00,
2013-01-19 17:11:00,59.0,6.4,30.74,North,351,0.0,0.0,12,0.00,SCT,,0.00,113.0,WeatherDisplay:10.37,2013-01-20 00:11:00,
2013-01-19 17:17:00,59.0,6.4,30.74,North,351,0.0,0.0,12,0.00,SCT,,0.00,113.0,WeatherDisplay:10.37,2013-01-20 00:17:00,
2013-01-19 17:22:00,59.0,6.4,30.74,North,351,0.0,0.0,12,0.00,SCT,,0.00,113.0,WeatherDisplay:10.37,2013-01-20 00:22:00,
2013-01-19 17:27:00,59.0,6.4,30.74,North,351,0.0,0.0,12,0.00,SCT,,0.00,113.0,WeatherDisplay:10.37,2013-01-20 00:27:00,
2013-01-19 17:32:00,59.0,6.4,30.74,North,351,0.0,0.0,12,0.00,SCT,,0.00,113.0,WeatherDisplay:10.37,2013-01-20 00:32:00,
2013-01-19 17:37:00,59.0,6.4,30.74,North,351,0.0,0.0,12,0.00,SCT,,0.00,0.0,WeatherDisplay:10.37,2013-01-20 00:37:00,
2013-01-19 17:42:00,59.0,6.4,30.74,North,351,0.0,0.0,12,0.00,SCT,,0.00,0.0,WeatherDisplay:10.37,2013-01-20 00:42:00,
2013-01-19 17:47:00,59.0,6.4,30.74,North,351,0.0,0.0,12,0.00,SCT,,0.00,0.0,WeatherDisplay:10.37,2013-01-20 00:47:00,
2013-01-19 17:53:00,59.0,6.4,30.74,North,351,0.0,0.0,12,0.00,SCT,,0.00,0.0,WeatherDisplay:10.37,2013-01-20 00:53:00,
2013-01-19 17:58:00,59.0,6.4,30.74,North,351,0.0,0.0,12,0.00,SCT,,0.00,0.0,WeatherDisplay:10.37,2013-01-20 00:58:00,
2013-01-19 18:03:00,59.0,6.4,30.74,North,351,0.0,0.0,12,0.00,SCT,,0.00,0.0,WeatherDisplay:10.37,2013-01-20 01:03:00,
2013-01-19 18:08:00,59.0,6.4,30.74,North,351,0.0,0.0,12,0.00,SCT,,0.00,0.0,WeatherDisplay:10.37,2013-01-20 01:08:00,
2013-01-19 18:13:00,59.0,6.4,30.74,North,351,0.0,0.0,12,0.00,SCT,,0.00,0.0,WeatherDisplay:10.37,2013-01-20 01:13:00,
2013-01-19 18:18:00,59.0,6.4,30.74,North,351,0.0,0.0,12,0.00,SCT,,0.00,0.0,WeatherDisplay:10.37,2013-01-20 01:18:00,
2013-01-19 18:23:00,59.0,6.4,30.74,North,351,0.0,0.0,12,0.00,SCT,,0.00,0.0,WeatherDisplay:10.37,2013-01-20 01:23:00,
2013-01-19 18:28:00,59.0,6.4,30.74,North,351,0.0,0.0,12,0.00,SCT,,0.00,0.0,WeatherDisplay:10.37,2013-01-20 01:28:00,
2013-01-19 18:33:00,59.0,6.4,30.74,North,351,0.0,0.0,12,0.00,SCT,,0.00,0.0,WeatherDisplay:10.37,2013-01-20 01:33:00,
2013-01-19 18:38:00,59.0,6.4,30.74,North,351,0.0,0.0,12,0.00,SCT,,0.00,0.0,WeatherDisplay:10.37,2013-01-20 01:38:00,
2013-01-19 18:43:00,59.0,6.4,30.74,North,351,0.0,0.0,12,0.00,SCT,,0.00,0.0,WeatherDisplay:10.37,2013-01-20 01:43:00,
2013-01-19 18:48:00,59.0,6.4,30.74,North,351,0.0,0.0,12,0.00,SCT,,0.00,0.0,WeatherDisplay:10.37,2013-01-20 01:48:00,
2013-01-19 18:54:00,59.0,6.4,30.74,North,351,0.0,0.0,12,0.00,SCT,,0.00,0.0,WeatherDisplay:10.37,2013-01-20 01:54:00,
2013-01-19 18:59:00,59.0,6.4,30.74,North,351,0.0,0.0,12,0.00,SCT,,0.00,0.0,WeatherDisplay:10.37,2013-01-20 01:59:00,
2013-01-19 19:04:00,45.2,5.3,31.87,SW,215,0.0,0.0,19,0.00,SCT,,0.00,0.0,WeatherDisplay:10.37,2013-01-20 02:04:00,
2013-01-19 19:09:00,45.0,5.1,31.87,SW,216,1.7,3.5,19,0.00,SCT,,0.00,0.0,WeatherDisplay:10.37,2013-01-20 02:09:00,
2013-01-19 19:14:00,45.0,5.1,31.87,SW,216,1.7,3.5,19,0.00,SCT,,0.00,0.0,WeatherDisplay:10.37,2013-01-20 02:14:00,
2013-01-19 19:19:00,45.0,5.1,31.87,SW,216,1.7,3.5,19,0.00,SCT,,0.00,0.0,WeatherDisplay:10.37,2013-01-20 02:19:00,
2013-01-19 19:24:00,45.0,5.1,31.87,SW,216,1.7,3.5,19,0.00,SCT,,0.00,0.0,WeatherDisplay:10.37,2013-01-20 02:24:00,
2013-01-19 19:29:00,45.0,5.1,31.87,SW,216,1.7,3.5,19,0.00,SCT,,0.00,0.0,WeatherDisplay:10.37,2013-01-20 02:29:00,
2013-01-19 19:35:00,45.0,5.1,31.87,SW,216,1.7,3.5,19,0.00,SCT,,0.00,0.0,WeatherDisplay:10.37,2013-01-20 02:35:00,
2013-01-19 19:40:00,45.0,5.1,31.87,SW,216,1.7,3.5,19,0.00,SCT,,0.00,0.0,WeatherDisplay:10.37,2013-01-20 02:40:00,
2013-01-19 19:45:00,45.0,5.1,31.87,SW,216,1.7,3.5,19,0.00,SCT,,0.00,0.0,WeatherDisplay:10.37,2013-01-20 02:45:00,
2013-01-19 19:50:00,45.0,5.1,31.87,SW,216,1.0,3.0,19,0.00,SCT,,0.00,0.0,WeatherDisplay:10.37,2013-01-20 02:50:00,
2013-01-19 19:55:00,45.0,5.1,31.87,SW,216,1.7,3.5,19,0.00,SCT,,0.00,0.0,WeatherDisplay:10.37,2013-01-20 02:55:00,
2013-01-19 20:00:00,45.0,5.1,31.87,SW,216,1.0,3.0,19,0.00,SCT,,0.00,0.0,WeatherDisplay:10.37,2013-01-20 03:00:00,
2013-01-19 20:05:00,45.0,5.1,31.87,SW,216,1.0,3.0,19,0.00,SCT,,0.00,0.0,WeatherDisplay:10.37,2013-01-20 03:05:00,
2013-01-19 20:10:00,45.0,5.1,31.87,SW,216,1.0,3.0,19,0.00,SCT,,0.00,0.0,WeatherDisplay:10.37,2013-01-20 03:10:00,
2013-01-19 20:15:00,45.0,5.1,31.87,SW,216,1.7,3.5,19,0.00,SCT,,0.00,0.0,WeatherDisplay:10.37,2013-01-20 03:15:00,
2013-01-19 20:20:00,45.0,5.1,31.87,SW,216,1.0,3.0,19,0.00,SCT,,0.00,0.0,WeatherDisplay:10.37,2013-01-20 03:20:00,
2013-01-19 20:25:00,45.0,5.1,31.87,SW,216,1.0,3.0,19,0.00,SCT,,0.00,0.0,WeatherDisplay:10.37,2013-01-20 03:25:00,
2013-01-19 20:30:00,45.0,5.1,31.87,SW,216,1.7,3.5,19,0.00,SCT,,0.00,0.0,WeatherDisplay:10.37,2013-01-20 03:30:00,
2013-01-19 20:35:00,45.0,5.1,31.87,SW,216,1.0,3.0,19,0.00,SCT,,0.00,0.0,WeatherDisplay:10.37,2013-01-20 03:35:00,
2013-01-19 20:40:00,45.0,5.1,31.87,SW,216,1.7,3.5,19,0.00,SCT,,0.00,0.0,WeatherDisplay:10.37,2013-01-20 03:40:00,
2013-01-19 20:46:00,45.0,5.1,31.87,SW,216,1.7,3.5,19,0.00,SCT,,0.00,0.0,WeatherDisplay:10.37,2013-01-20 03:46:00,
2013-01-19 20:51:00,45.0,5.1,31.87,SW,216,1.7,3.5,19,0.00,SCT,,0.00,0.0,WeatherDisplay:10.37,2013-01-20 03:51:00,
2013-01-19 20:57:00,45.0,5.1,31.87,SW,216,1.7,3.5,19,0.00,SCT,,0.00,0.0,WeatherDisplay:10.37,2013-01-20 03:57:00,
2013-01-19 21:02:00,45.0,5.1,31.87,SW,216,1.7,3.5,19,0.00,SCT,,0.00,0.0,WeatherDisplay:10.37,2013-01-20 04:02:00,
2013-01-19 21:07:00,45.0,5.1,31.87,SW,216,1.7,3.5,19,0.00,SCT,,0.00,0.0,WeatherDisplay:10.37,2013-01-20 04:07:00,
2013-01-19 21:13:00,45.0,5.1,31.87,SW,216,1.7,3.5,19,0.00,SCT,,0.00,0.0,WeatherDisplay:10.37,2013-01-20 04:13:00,
2013-01-19 21:18:00,45.0,5.1,31.87,SW,216,1.7,3.5,19,0.00,SCT,,0.00,0.0,WeatherDisplay:10.37,2013-01-20 04:18:00,
2013-01-19 21:23:00,45.0,5.1,31.87,SW,216,1.7,3.5,19,0.00,SCT,,0.00,0.0,WeatherDisplay:10.37,2013-01-20 04:23:00,
2013-01-19 21:28:00,45.0,5.1,31.87,SW,216,1.7,3.5,19,0.00,SCT,,0.00,0.0,WeatherDisplay:10.37,2013-01-20 04:28:00,
2013-01-19 21:34:00,45.0,5.1,31.87,SW,216,1.7,3.5,19,0.00,SCT,,0.00,0.0,WeatherDisplay:10.37,2013-01-20 04:34:00,
2013-01-19 21:39:00,45.0,5.1,31.87,SW,216,1.7,3.5,19,0.00,SCT,,0.00,0.0,WeatherDisplay:10.37,2013-01-20 04:39:00,
2013-01-19 21:44:00,45.0,5.1,31.87,SW,216,1.7,3.5,19,0.00,SCT,,0.00,0.0,WeatherDisplay:10.37,2013-01-20 04:44:00,
2013-01-19 21:49:00,45.0,5.1,31.87,SW,216,1.7,3.5,19,0.00,SCT,,0.00,0.0,WeatherDisplay:10.37,2013-01-20 04:49:00,
2013-01-19 21:54:00,45.0,5.1,31.87,SW,216,1.7,3.5,19,0.00,SCT,,0.00,0.0,WeatherDisplay:10.37,2013-01-20 04:54:00,
2013-01-19 21:59:00,45.0,5.1,31.87,SW,216,1.7,3.5,19,0.00,SCT,,0.00,0.0,WeatherDisplay:10.37,2013-01-20 04:59:00,
2013-01-19 22:00:00,45.0,5.1,31.87,SW,216,1.7,3.5,19,0.00,SCT,,0.00,0.0,WeatherDisplay:10.37,2013-01-20 05:00:00,
2013-01-19 22:01:00,45.0,5.1,31.87,SW,216,1.7,3.5,19,0.00,SCT,,0.00,0.0,WeatherDisplay:10.37,2013-01-20 05:01:00,
2013-01-19 22:03:00,45.0,5.1,31.87,SW,216,1.7,3.5,19,0.00,SCT,,0.00,0.0,WeatherDisplay:10.37,2013-01-20 05:03:00,
2013-01-19 22:08:00,45.0,5.1,31.87,SW,216,1.7,3.5,19,0.00,SCT,,0.00,0.0,WeatherDisplay:10.37,2013-01-20 05:08:00,
2013-01-19 22:13:00,45.0,5.1,31.87,SW,216,1.7,3.5,19,0.00,SCT,,0.00,0.0,WeatherDisplay:10.37,2013-01-20 05:13:00,
2013-01-19 22:18:00,45.0,5.1,31.87,SW,216,1.7,3.5,19,0.00,SCT,,0.00,0.0,WeatherDisplay:10.37,2013-01-20 05:18:00,
2013-01-19 22:23:00,45.0,5.1,31.87,SW,216,1.7,3.5,19,0.00,SCT,,0.00,0.0,WeatherDisplay:10.37,2013-01-20 05:23:00,
2013-01-19 22:28:00,45.0,5.1,31.87,SW,216,1.7,3.5,19,0.00,SCT,,0.00,0.0,WeatherDisplay:10.37,2013-01-20 05:28:00,
2013-01-19 22:33:00,45.0,5.1,31.87,SW,216,1.7,3.5,19,0.00,SCT,,0.00,0.0,WeatherDisplay:10.37,2013-01-20 05:33:00,
2013-01-19 22:38:00,45.0,5.1,31.87,SW,216,1.7,3.5,19,0.00,SCT,,0.00,0.0,WeatherDisplay:10.37,2013-01-20 05:38:00,
2013-01-19 22:43:00,45.0,5.1,31.87,SW,216,1.7,3.5,19,0.00,SCT,,0.00,0.0,WeatherDisplay:10.37,2013-01-20 05:43:00,
2013-01-19 22:48:00,45.0,5.1,31.87,SW,216,1.7,3.5,19,0.00,SCT,,0.00,0.0,WeatherDisplay:10.37,2013-01-20 05:48:00,
2013-01-19 22:53:00,45.0,5.1,31.87,SW,216,1.7,3.5,19,0.00,SCT,,0.00,0.0,WeatherDisplay:10.37,2013-01-20 05:53:00,
2013-01-19 22:58:00,45.0,5.1,31.87,SW,216,1.7,3.5,19,0.00,SCT,,0.00,0.0,WeatherDisplay:10.37,2013-01-20 05:58:00,
2013-01-19 23:03:00,45.0,5.1,31.87,SW,216,1.7,3.5,19,0.00,SCT,,0.00,0.0,WeatherDisplay:10.37,2013-01-20 06:03:00,
2013-01-19 23:08:00,45.0,5.1,31.87,SW,216,1.7,3.5,19,0.00,SCT,,0.00,0.0,WeatherDisplay:10.37,2013-01-20 06:08:00,
2013-01-19 23:13:00,45.0,5.1,31.87,SW,216,1.7,3.5,19,0.00,SCT,,0.00,0.0,WeatherDisplay:10.37,2013-01-20 06:13:00,
2013-01-19 23:18:00,45.0,5.1,31.87,SW,216,1.7,3.5,19,0.00,SCT,,0.00,0.0,WeatherDisplay:10.37,2013-01-20 06:18:00,
2013-01-19 23:23:00,45.0,5.1,31.87,SW,216,1.7,3.5,19,0.00,SCT,,0.00,0.0,WeatherDisplay:10.37,2013-01-20 06:23:00,
2013-01-19 23:28:00,45.0,5.1,31.87,SW,216,1.7,3.5,19,0.00,SCT,,0.00,0.0,WeatherDisplay:10.37,2013-01-20 06:28:00,
2013-01-19 23:33:00,45.0,5.1,31.87,SW,216,1.7,3.5,19,0.00,SCT,,0.00,0.0,WeatherDisplay:10.37,2013-01-20 06:33:00,
2013-01-19 23:38:00,45.0,5.1,31.87,SW,216,1.7,3.5,19,0.00,SCT,,0.00,0.0,WeatherDisplay:10.37,2013-01-20 06:38:00,
2013-01-19 23:43:00,45.0,5.1,31.87,SW,216,1.7,3.5,19,0.00,SCT,,0.00,0.0,WeatherDisplay:10.37,2013-01-20 06:43:00,
2013-01-19 23:48:00,45.0,5.1,31.87,SW,216,1.7,3.5,19,0.00,SCT,,0.00,0.0,WeatherDisplay:10.37,2013-01-20 06:48:00,
2013-01-19 23:53:00,45.0,5.1,31.87,SW,216,1.7,3.5,19,0.00,SCT,,0.00,0.0,WeatherDisplay:10.37,2013-01-20 06:53:00,
2013-01-19 23:58:00,45.0,5.1,31.87,SW,216,1.7,3.5,19,0.00,SCT,,0.00,0.0,WeatherDisplay:10.37,2013-01-20 06:58:00,